CREW DRAGON DEMO-2 (45623 NORAD) Tracking and Keplerian Element Data

This shows tracking and keplerian element data for the satellite.

Feedback or suggestion? Click here.




ElementValue
Catalog45623
NameCREW DRAGON DEMO-2
Epoch Orbit677
Epoch Day195.49158571
Epoch Year2020
RAAN218.2804
Inclination51.6453
Eccentricity0.0001447
Argument of Perigee109.8476
Mean Anonmoly39.4538
Mean Motion15.49517248
Decay Rate2.254E-05
L11 45623U 20033A 20195.49158571 .00002254 00000-0 48204-4 0 9990
L22 45623 51.6453 218.2804 0001447 109.8476 39.4538 15.49517248 6770

Live tracking and technical data element details for CREW DRAGON DEMO-2 (NORAD 45623). CREW DRAGON DEMO-2 can be tracked NOW for your location showing map with azimuth and elevation plus other details from your city location.

Track the satellite on the map from your city or location and see movement details for azimuth, elevation, latitude, longitude, range, height, and movement on the map or in text.







IsCatalogInMostPopularTable: catalog: 45623, numindb: 549
Update: records affected: 1



GetName: 45623 CREW DRAGON DEMO-2

Hit Count: updated at: Thu, 16 Jul 2020 04:16:47 GMT